When you browse on this site, cookies collect data to enhance your experience and personalize the content and advertising you see.
Visit our Privacy Policy to learn more. By continuing to use the site, you agree to this use of cookies and data.
  • en Suisse
  • Liste des pays
  • À 7 jours
  • Température de l'eau
  • Carte satellitaire
  • Carte météo
  • Widgets météo
  • user-avatar
    Se connecter

    Météo par heure à Shvarcevskiy

    Ce jour, 16 Juin, Dimanche

    Heure Température Précipitation Vent Pression Humidité
    00:00 +16°C° 0 mm 1 m/s 739 mmHg 86%
    01:00 +15°C° 0 mm 1 m/s 739 mmHg 88%
    02:00 +13°C° 0 mm 0 m/s 739 mmHg 90%
    03:00 +12°C° 0 mm 0 m/s 740 mmHg 92%
    04:00 +13°C° 0 mm 0 m/s 739 mmHg 91%
    05:00 +15°C° 0 mm 1 m/s 739 mmHg 90%
    06:00 +15°C° 0 mm 1 m/s 739 mmHg 89%
    07:00 +16°C° 0.1 mm 1 m/s 739 mmHg 86%
    08:00 +19°C° 0.1 mm 1 m/s 740 mmHg 83%
    09:00 +20°C° 0.1 mm 1 m/s 740 mmHg 80%
    10:00 +19°C° 0.6 mm 2 m/s 740 mmHg 76%
    11:00 +20°C° 0.6 mm 2 m/s 740 mmHg 73%
    12:00 +21°C° 0.6 mm 3 m/s 740 mmHg 69%
    13:00 +21°C° 0.1 mm 3 m/s 740 mmHg 68%
    14:00 +22°C° 0.1 mm 3 m/s 740 mmHg 67%
    15:00 +22°C° 0.1 mm 3 m/s 740 mmHg 65%
    16:00 +22°C° 0 mm 3 m/s 740 mmHg 66%
    17:00 +23°C° 0 mm 2 m/s 739 mmHg 67%
    18:00 +23°C° 0 mm 2 m/s 739 mmHg 68%
    19:00 +20°C° 0.1 mm 2 m/s 740 mmHg 73%
    20:00 +20°C° 0.1 mm 1 m/s 740 mmHg 78%
    21:00 +19°C° 0.1 mm 1 m/s 740 mmHg 83%
    22:00 +18°C° 0 mm 1 m/s 740 mmHg 84%
    23:00 +15°C° 0 mm 0 m/s 740 mmHg 85%

    Demain, 17 Juin, Lundi

    Heure Température Précipitation Vent Pression Humidité
    00:00 +14°C° 0 mm 0 m/s 740 mmHg 86%
    01:00 +14°C° 0 mm 0 m/s 740 mmHg 87%
    02:00 +14°C° 0 mm 0 m/s 740 mmHg 87%
    03:00 +13°C° 0 mm 0 m/s 741 mmHg 88%
    04:00 +14°C° 0 mm 0 m/s 741 mmHg 87%
    05:00 +16°C° 0 mm 1 m/s 741 mmHg 86%
    06:00 +18°C° 0 mm 1 m/s 740 mmHg 86%
    07:00 +19°C° 0 mm 1 m/s 741 mmHg 81%
    08:00 +20°C° 0 mm 1 m/s 741 mmHg 77%
    09:00 +22°C° 0 mm 1 m/s 741 mmHg 72%
    10:00 +23°C° 0.1 mm 2 m/s 741 mmHg 68%
    11:00 +23°C° 0.1 mm 2 m/s 741 mmHg 64%
    12:00 +24°C° 0.1 mm 2 m/s 741 mmHg 60%
    13:00 +24°C° 0 mm 3 m/s 741 mmHg 61%
    14:00 +25°C° 0 mm 3 m/s 740 mmHg 61%
    15:00 +25°C° 0 mm 4 m/s 740 mmHg 62%
    16:00 +24°C° 0 mm 3 m/s 740 mmHg 64%
    17:00 +24°C° 0 mm 3 m/s 740 mmHg 67%
    18:00 +22°C° 0 mm 3 m/s 740 mmHg 69%
    19:00 +21°C° 0 mm 2 m/s 740 mmHg 72%
    20:00 +20°C° 0 mm 2 m/s 740 mmHg 74%
    21:00 +20°C° 0 mm 1 m/s 740 mmHg 77%
    22:00 +19°C° 0 mm 1 m/s 740 mmHg 75%
    23:00 +19°C° 0 mm 1 m/s 740 mmHg 74%

    Après-demain, 18 Juin, Mardi

    Heure Température Précipitation Vent Pression Humidité
    00:00 +19°C° 0 mm 1 m/s 740 mmHg 73%
    01:00 +19°C° 0 mm 1 m/s 740 mmHg 73%
    02:00 +19°C° 0 mm 1 m/s 740 mmHg 74%
    03:00 +19°C° 0 mm 1 m/s 740 mmHg 74%
    04:00 +19°C° 0 mm 1 m/s 740 mmHg 77%
    05:00 +19°C° 0 mm 1 m/s 740 mmHg 79%
    06:00 +20°C° 0 mm 1 m/s 740 mmHg 82%
    07:00 +20°C° 0.2 mm 1 m/s 740 mmHg 82%
    08:00 +19°C° 0.2 mm 2 m/s 740 mmHg 83%
    09:00 +20°C° 0.2 mm 2 m/s 740 mmHg 83%
    10:00 +21°C° 0.2 mm 2 m/s 740 mmHg 79%
    11:00 +23°C° 0.2 mm 2 m/s 740 mmHg 76%
    12:00 +24°C° 0.2 mm 2 m/s 740 mmHg 72%
    13:00 +24°C° 0.2 mm 3 m/s 740 mmHg 72%
    14:00 +24°C° 0.2 mm 3 m/s 740 mmHg 72%
    15:00 +24°C° 0.2 mm 3 m/s 740 mmHg 72%
    16:00 +25°C° 0.1 mm 3 m/s 740 mmHg 70%
    17:00 +25°C° 0.1 mm 2 m/s 740 mmHg 68%
    18:00 +25°C° 0.1 mm 2 m/s 740 mmHg 67%
    19:00 +23°C° 0 mm 1 m/s 740 mmHg 71%
    20:00 +22°C° 0 mm 1 m/s 740 mmHg 75%
    21:00 +18°C° 0 mm 0 m/s 740 mmHg 79%
    22:00 +19°C° 0 mm 1 m/s 740 mmHg 79%
    23:00 +19°C° 0 mm 1 m/s 741 mmHg 80%

    19 Juin, Mercredi

    Heure Température Précipitation Vent Pression Humidité
    00:00 +17°C° 0 mm 2 m/s 741 mmHg 81%
    01:00 +17°C° 0 mm 2 m/s 741 mmHg 82%
    02:00 +16°C° 0 mm 2 m/s 741 mmHg 83%
    03:00 +16°C° 0 mm 2 m/s 741 mmHg 84%
    04:00 +16°C° 0 mm 2 m/s 741 mmHg 84%
    05:00 +17°C° 0 mm 3 m/s 742 mmHg 84%
    06:00 +17°C° 0 mm 3 m/s 742 mmHg 83%
    07:00 +18°C° 0 mm 3 m/s 742 mmHg 78%
    08:00 +20°C° 0 mm 3 m/s 742 mmHg 72%
    09:00 +21°C° 0 mm 3 m/s 742 mmHg 67%
    10:00 +22°C° 0 mm 3 m/s 742 mmHg 62%
    11:00 +24°C° 0 mm 3 m/s 743 mmHg 57%
    12:00 +25°C° 0 mm 3 m/s 743 mmHg 53%
    13:00 +26°C° 0 mm 3 m/s 743 mmHg 53%
    14:00 +26°C° 0 mm 3 m/s 743 mmHg 54%
    15:00 +26°C° 0 mm 3 m/s 743 mmHg 54%
    16:00 +26°C° 0 mm 2 m/s 743 mmHg 58%
    17:00 +26°C° 0 mm 2 m/s 743 mmHg 61%
    18:00 +26°C° 0 mm 2 m/s 742 mmHg 65%
    19:00 +24°C° 0 mm 1 m/s 742 mmHg 69%
    20:00 +22°C° 0 mm 1 m/s 742 mmHg 72%
    21:00 +20°C° 0 mm 1 m/s 742 mmHg 76%
    22:00 +19°C° 0 mm 1 m/s 743 mmHg 75%
    23:00 +19°C° 0 mm 1 m/s 743 mmHg 75%

    20 Juin, Jeudi

    Heure Température Précipitation Vent Pression Humidité
    00:00 +18°C° 0 mm 1 m/s 743 mmHg 74%
    01:00 +18°C° 0 mm 1 m/s 743 mmHg 77%
    02:00 +16°C° 0 mm 1 m/s 743 mmHg 79%
    03:00 +16°C° 0 mm 1 m/s 743 mmHg 82%
    04:00 +18°C° 0 mm 1 m/s 744 mmHg 81%
    05:00 +19°C° 0 mm 1 m/s 744 mmHg 81%
    06:00 +19°C° 0 mm 1 m/s 744 mmHg 80%
    07:00 +21°C° 0 mm 1 m/s 744 mmHg 75%
    08:00 +23°C° 0 mm 1 m/s 744 mmHg 70%
    09:00 +24°C° 0 mm 1 m/s 744 mmHg 65%
    10:00 +25°C° 0 mm 1 m/s 744 mmHg 59%
    11:00 +26°C° 0 mm 1 m/s 744 mmHg 54%
    12:00 +27°C° 0 mm 1 m/s 744 mmHg 49%
    13:00 +28°C° 0 mm 1 m/s 744 mmHg 48%
    14:00 +28°C° 0 mm 1 m/s 744 mmHg 47%
    15:00 +28°C° 0 mm 1 m/s 744 mmHg 46%
    16:00 +28°C° 0 mm 1 m/s 744 mmHg 50%
    17:00 +27°C° 0 mm 1 m/s 744 mmHg 55%
    18:00 +27°C° 0 mm 1 m/s 743 mmHg 59%
    19:00 +25°C° 0 mm 2 m/s 743 mmHg 62%
    20:00 +23°C° 0 mm 2 m/s 744 mmHg 66%
    21:00 +20°C° 0 mm 2 m/s 744 mmHg 70%
    22:00 +20°C° 0 mm 2 m/s 744 mmHg 70%
    23:00 +19°C° 0 mm 2 m/s 744 mmHg 70%

    21 Juin, Vendredi

    Heure Température Précipitation Vent Pression Humidité
    00:00 +18°C° 0 mm 2 m/s 744 mmHg 71%
    01:00 +19°C° 0 mm 1 m/s 744 mmHg 73%
    02:00 +18°C° 0 mm 1 m/s 744 mmHg 76%
    03:00 +18°C° 0 mm 1 m/s 744 mmHg 78%
    04:00 +18°C° 0 mm 1 m/s 744 mmHg 79%
    05:00 +19°C° 0 mm 1 m/s 744 mmHg 80%
    06:00 +20°C° 0 mm 1 m/s 744 mmHg 81%
    07:00 +20°C° 0 mm 2 m/s 744 mmHg 76%
    08:00 +23°C° 0 mm 2 m/s 744 mmHg 72%
    09:00 +25°C° 0 mm 2 m/s 744 mmHg 68%
    10:00 +25°C° 0 mm 3 m/s 744 mmHg 64%
    11:00 +26°C° 0 mm 3 m/s 744 mmHg 60%
    12:00 +27°C° 0 mm 3 m/s 744 mmHg 56%
    13:00 +27°C° 0 mm 4 m/s 744 mmHg 57%
    14:00 +27°C° 0 mm 4 m/s 744 mmHg 57%
    15:00 +27°C° 0 mm 4 m/s 743 mmHg 58%
    16:00 +27°C° 0 mm 4 m/s 743 mmHg 62%
    17:00 +27°C° 0 mm 3 m/s 743 mmHg 65%
    18:00 +27°C° 0 mm 3 m/s 743 mmHg 69%
    19:00 +25°C° 0 mm 3 m/s 743 mmHg 72%
    20:00 +24°C° 0 mm 3 m/s 743 mmHg 76%
    21:00 +21°C° 0 mm 2 m/s 743 mmHg 79%
    22:00 +20°C° 0 mm 3 m/s 743 mmHg 81%
    23:00 +20°C° 0 mm 3 m/s 743 mmHg 82%
    Voir plus